DW7304 Weather Reports


Display with metric or nautical units.
time (UTC)temp
F
wind
direction
speed
MPH
gust
MPH
rain 1hr
in
rain 24hr
in
rain mn
in
humidity
%
barometer
mb
20260504081803 63 258 4.0 9.0 0.00 0.00 0.00 49 1014.4
20260504080903 63 247 3.0 8.0 0.00 0.00 0.00 50 1014.2
20260504080217 64 269 2.0 6.0 0.00 0.00 0.00 50 1014.3
20260504050003 54 105 1.0 2.0 0.00 0.00 0.00 54 1013.2
20260504045403 53 111 2.0 2.0 0.00 0.00 0.00 54 1013.1
20260504044503 53 113 1.0 2.0 0.00 0.00 0.00 54 1012.9
20260504043818 53 112 1.0 2.0 0.00 0.00 0.00 54 1013.0
20260504042917 53 113 1.0 3.0 0.00 0.00 0.00 54 1012.9
20260504041803 53 108 2.0 3.0 0.00 0.00 0.00 54 1012.9
20260504040903 53 110 2.0 3.0 0.00 0.00 0.00 55 1013.1
20260504040003 53 108 2.0 2.0 0.00 0.00 0.00 55 1013.1
20260504035403 53 112 2.0 2.0 0.00 0.00 0.00 55 1013.1
20260504034503 53 113 2.0 3.0 0.00 0.00 0.00 55 1013.1
20260504033603 53 111 2.0 3.0 0.00 0.00 0.00 56 1013.0
20260504032703 52 96 2.0 2.0 0.00 0.00 0.00 57 1013.1
20260504031803 53 94 1.0 2.0 0.00 0.00 0.00 57 1013.1
20260504030904 53 106 2.0 2.0 0.00 0.00 0.00 56 1013.1
20260504030003 53 93 2.0 3.0 0.00 0.00 0.00 56 1013.1
20260504025403 53 90 2.0 2.0 0.00 0.00 0.00 55 1013.2
20260504024503 53 107 1.0 2.0 0.00 0.00 0.00 54 1013.3
20260504023817 53 133 0.0 2.0 0.00 0.00 0.00 53 1013.3
20260504022703 54 126 1.0 2.0 0.00 0.00 0.00 52 1013.5
20260504021803 54 109 2.0 3.0 0.00 0.00 0.00 52 1013.5
20260504020903 54 109 2.0 4.0 0.00 0.00 0.00 51 1013.5
20260504020003 54 123 1.0 2.0 0.00 0.00 0.00 51 1013.3
20260504015403 53 123 0.0 2.0 0.00 0.00 0.00 51 1013.6
20260504014504 53 109 0.0 2.0 0.00 0.00 0.00 50 1013.6
20260504013603 53 88 1.0 2.0 0.00 0.00 0.00 50 1013.5
20260504012918 53 91 1.0 2.0 0.00 0.00 0.00 50 1013.3
20260504011803 54 127 0.0 2.0 0.00 0.00 0.00 50 1013.5
20260504010903 54 135 0.0 2.0 0.00 0.00 0.00 50 1013.5
20260504010218 54 0 0.0 0.0 0.00 0.00 0.00 50 1013.3
20260504005403 54 0 0.0 0.0 0.00 0.00 0.00 50 1013.5
20260504004503 54 0 0.0 0.0 0.00 0.00 0.00 50 1013.5
20260504003816 55 112 0.0 2.0 0.00 0.00 0.00 49 1013.6
20260504002703 55 112 1.0 2.0 0.00 0.00 0.00 49 1013.7
20260504001803 55 112 2.0 2.0 0.00 0.00 0.00 49 1013.7
20260504000903 55 112 2.0 2.0 0.00 0.00 0.00 49 1013.7
20260504000003 54 106 1.0 2.0 0.00 0.00 0.00 49 1013.7
20260503235403 54 108 1.0 2.0 0.00 0.00 0.00 49 1013.8
20260503234717 54 112 1.0 2.0 0.00 0.00 0.00 50 1013.9
20260503233818 54 108 2.0 2.0 0.00 0.00 0.00 50 1013.7
20260503232917 54 100 2.0 2.0 0.00 0.00 0.00 51 1013.8
20260503231803 54 104 1.0 2.0 0.00 0.00 0.00 51 1013.8
20260503230903 54 91 1.0 2.0 0.00 0.00 0.00 51 1013.7
20260503230004 54 72 1.0 2.0 0.00 0.00 0.00 52 1013.7
20260503225403 54 74 2.0 2.0 0.00 0.00 0.00 52 1013.7
20260503224503 53 79 0.0 2.0 0.00 0.00 0.00 53 1013.7
20260503223603 53 0 0.0 0.0 0.00 0.00 0.00 54 1013.8
20260503222703 53 0 0.0 0.0 0.00 0.00 0.00 56 1013.8
20260503221803 53 0 0.0 0.0 0.00 0.00 0.00 57 1013.8
20260503221118 54 0 0.0 0.0 0.00 0.00 0.00 57 1014.0
20260503220004 54 0 0.0 0.0 0.00 0.00 0.00 58 1014.0
20260503215403 54 0 0.0 0.0 0.00 0.00 0.00 58 1014.0
20260503214503 54 0 0.0 0.0 0.00 0.00 0.00 58 1013.8
20260503213603 54 0 0.0 0.0 0.00 0.00 0.00 58 1013.8
20260503212703 54 0 0.0 0.0 0.00 0.00 0.00 58 1013.8
20260503211803 54 112 1.0 2.0 0.00 0.00 0.00 58 1013.7
20260503210904 54 103 2.0 2.0 0.00 0.00 0.00 58 1013.7
20260503210004 54 79 1.0 2.0 0.00 0.00 0.00 59 1013.7
20260503205403 54 69 1.0 2.0 0.00 0.00 0.00 59 1013.6
20260503204503 54 56 1.0 2.0 0.00 0.00 0.00 59 1013.6
20260503203603 54 39 1.0 2.0 0.00 0.00 0.00 59 1013.7
20260503202703 54 39 2.0 2.0 0.00 0.00 0.00 59 1013.7
20260503201803 54 76 1.0 2.0 0.00 0.00 0.00 59 1013.7
20260503200903 54 64 2.0 4.0 0.00 0.00 0.00 59 1013.6
20260503200003 54 65 2.0 3.0 0.00 0.00 0.00 59 1013.7
20260503195403 54 79 2.0 2.0 0.00 0.00 0.00 59 1013.9
20260503194503 54 79 1.0 2.0 0.00 0.00 0.00 59 1013.8
20260503193603 54 70 2.0 3.0 0.00 0.00 0.00 59 1013.7
20260503192703 54 50 3.0 3.0 0.00 0.00 0.00 59 1013.7
20260503192017 54 63 2.0 3.0 0.00 0.00 0.00 58 1013.7
20260503190903 55 83 1.0 2.0 0.00 0.00 0.00 58 1013.7
20260503190003 54 68 2.0 3.0 0.00 0.00 0.00 58 1013.7
20260503185403 54 66 2.0 3.0 0.00 0.00 0.00 58 1013.7
20260503184503 55 65 2.0 3.0 0.00 0.00 0.00 57 1013.6
20260503183603 55 78 1.0 2.0 0.00 0.00 0.00 56 1013.6
20260503182703 56 83 2.0 3.0 0.00 0.00 0.00 55 1013.6
20260503181803 56 94 1.0 4.0 0.00 0.00 0.00 54 1013.7
20260503180903 57 45 0.0 1.0 0.00 0.00 0.00 53 1013.7
20260503180003 59 253 1.0 6.0 0.00 0.00 0.00 52 1013.7
20260503175403 59 222 2.0 6.0 0.00 0.00 0.00 52 1013.7
20260503174503 59 196 2.0 6.0 0.00 0.00 0.00 52 1013.7
20260503173603 60 210 4.0 8.0 0.00 0.00 0.00 51 1013.7
20260503172703 60 209 5.0 8.0 0.00 0.00 0.00 51 1013.7
20260503171803 62 196 4.0 10.0 0.00 0.00 0.00 50 1013.7
20260503171118 62 207 5.0 10.0 0.00 0.00 0.00 50 1013.8
20260503150903 67 226 5.0 12.0 0.00 0.00 0.00 45 1014.2
20260503130903 66 224 7.0 16.0 0.00 0.00 0.00 46 1014.6
20260503100216 64 230 6.0 11.0 0.00 0.00 0.00 47 1015.6
20260503090218 62 237 8.0 16.0 0.00 0.00 0.00 50 1015.7